CAPE
724 892 871 991 1086 614 891 924 832 784 579 677 747 814 826 870 871 933 940 925 1006 714 941 1583 1447 1237 1044 955 985 1107 898 964 1057 860 531 977 870 958 887 832 704 741 956 283 562 552 376 335 401 535 653 312 263 231 213 244 280 279 245 230 206 335 258
859 1033 984 827 486 680 730 772 490 376 590 734 680 682 655 648 831 813 843 884 924 707 549 1529 1405 1137 1081 1171 1321 1543 1464 1294 1122 970 1033 1024 820 1031 713 1170 841 971 687 942 888 1118 365 286 538 434 325 236 169 126 151 148 121 119 132 115 128 136 174
1149 832 685 508 560 577 754 707 556 524 647 808 740 678 674 601 631 723 812 799 808 684 563 276 1258 1328 1430 1228 1181 1464 1406 1132 1340 1371 1263 1409 1172 807 997 789 767 1006 543 850 438 501 1124 715 205 308 253 267 135 126 151 80 61 24 21 53 89 110 55
931 694 346 392 775 587 768 702 564 516 617 700 749 717 651 474 565 548 458 597 725 747 317 588 1269 1497 1447 1336 1481 1525 1587 1373 1120 942 1420 1242 1203 830 886 1105 1228 608 470 613 374 741 763 489 538 401 346 253 54 64 50 9 10 6 16 63 28 1 2
818 588 300 653 519 530 618 624 463 428 444 416 603 687 637 473 532 580 586 605 635 686 539 381 647 1296 1383 1390 1420 1497 1301 1420 1252 1348 1482 1316 1137 1310 1371 968 1137 1312 990 851 559 445 920 670 554 249 194 130 112 36 10 37 12 1 6 5 0 0 0
667 535 503 504 514 586 544 410 412 383 413 463 543 526 645 594 516 617 549 486 539 636 548 455 405 1164 1299 1284 1340 1008 1023 1395 1363 1152 931 1155 912 1010 841 722 1056 852 996 1062 1047 618 427 678 758 464 198 215 123 40 9 0 2 5 0 0 2 0 0
796 889 761 526 528 574 545 597 568 561 532 578 524 494 577 582 407 488 449 435 450 554 541 510 350 460 903 926 1315 1288 1296 1278 1121 1346 1222 1032 830 1218 1294 914 865 778 708 935 1116 640 445 512 559 308 60 33 7 0 1 8 3 5 2 2 0 0 0
813 597 767 708 620 628 574 604 644 620 500 565 498 488 484 547 484 498 507 516 543 570 595 572 474 476 569 176 1065 1326 1334 1477 1575 1154 1214 1317 1266 1170 1092 859 982 721 1159 612 381 628 329 696 659 344 118 14 4 8 7 0 5 0 0 0 0 0 0
748 796 989 784 783 805 625 598 700 504 430 457 437 514 589 512 549 543 456 426 401 561 660 586 478 434 489 328 739 1356 1396 937 1476 1471 1442 1488 1307 959 1141 1107 1018 528 714 517 771 766 506 556 590 238 85 5 15 4 7 4 2 0 0 0 0 0 0
943 1338 1016 895 810 768 726 609 641 415 530 510 574 666 734 552 540 473 303 271 262 341 454 366 260 331 399 259 323 354 369 653 922 1299 1318 1499 1374 1324 926 1336 1248 1076 432 1041 928 833 334 261 190 101 1 7 26 9 0 4 13 1 0 0 0 0 0
1171 1390 1239 835 777 775 646 582 565 611 588 622 602 679 808 544 470 258 198 131 164 345 333 214 114 182 235 215 232 235 291 378 515 597 970 1231 1444 1385 1268 926 1015 782 502 897 861 633 387 141 19 0 2 8 10 9 8 1 2 4 2 0 0 0 0
1543 1611 1192 731 814 635 608 558 597 626 675 586 568 629 650 492 256 253 170 41 69 187 226 201 134 114 134 169 157 138 164 186 201 316 357 881 1268 1500 1136 1164 1193 1191 966 1099 832 680 272 14 7 10 11 12 3 4 18 4 0 0 0 0 0 0 0
1451 1330 849 629 566 539 505 726 550 662 695 391 370 474 507 443 294 240 111 9 12 78 264 177 73 100 110 74 28 46 75 75 94 172 243 583 968 1067 1412 1297 897 953 1074 985 626 292 40 1 7 9 0 2 0 4 0 0 0 0 0 0 0 0 0
1476 1166 627 389 599 492 504 482 519 561 606 501 354 384 437 403 333 231 72 0 0 28 153 104 79 76 53 6 13 10 1 2 12 49 112 156 261 1041 1053 1032 906 1082 1045 311 172 135 6 0 0 0 0 0 0 0 8 16 0 0 0 0 0 0 0
1331 979 563 552 468 466 457 481 555 546 558 593 458 373 469 290 254 178 36 0 0 3 134 85 50 16 4 5 12 5 2 0 0 29 113 62 88 65 314 994 943 507 168 37 72 3 1 0 0 0 0 0 0 0 0 3 0 0 0 0 0 0 0
1352 796 663 532 499 522 498 610 626 578 581 521 452 464 385 347 256 182 23 0 0 0 88 33 10 15 16 3 0 0 0 1 8 37 70 68 70 80 66 196 257 250 120 25 20 1 0 0 0 0 1 0 0 0 0 3 1 0 0 0 0 0 0
1242 938 666 462 503 698 661 639 565 483 482 426 395 382 322 284 202 138 14 0 0 0 46 11 0 0 0 0 0 0 0 5 4 6 20 41 70 102 96 156 258 186 37 16 1 2 0 1 0 0 0 0 0 0 8 0 0 4 0 0 0 0 0
1391 800 653 553 635 695 720 534 475 328 406 301 340 327 220 97 89 92 12 0 0 0 28 6 0 0 0 0 0 0 0 0 0 0 0 2 42 110 84 107 67 104 88 32 21 1 0 0 0 0 0 1 0 13 37 16 10 2 0 0 0 0 0
856 934 584 702 621 629 651 337 420 298 110 123 272 223 32 48 27 37 0 0 0 0 0 0 0 0 0 0 0 0 0 0 0 0 0 0 5 28 63 20 26 56 73 39 10 5 2 0 2 7 4 1 10 2 13 15 11 103 42 33 0 0 3
999 950 769 619 660 664 674 552 389 316 98 110 140 53 34 62 27 9 0 0 0 0 0 0 0 0 0 0 0 0 0 0 0 0 0 0 3 6 10 10 25 30 21 24 21 13 7 26 1 10 18 37 1 27 1 0 14 16 32 117 90 2 2
1580 848 677 573 611 611 572 484 451 347 176 35 1 8 2 7 20 0 0 0 0 0 0 0 0 0 0 0 0 0 0 0 0 0 0 0 3 7 12 16 34 29 51 93 182 48 30 10 19 31 32 9 9 11 6 15 22 35 87 56 76 60 6
1497 1168 679 367 229 376 383 494 544 394 185 11 0 0 0 0 0 0 0 0 0 0 0 109 0 0 13 0 0 0 2 0 4 13 17 18 24 29 11 4 4 249 89 0 0 40 149 131 426 137 122 52 32 13 27 112 66 21 75 50 34 16 11
1204 1279 840 584 486 474 486 532 534 403 161 7 2 0 0 0 0 63 0 0 0 376 28 0 0 0 0 0 26 1 3 21 18 19 15 28 21 49 76 97 467 0 0 0 0 0 0 0 0 18 229 313 165 90 79 62 70 44 5 1 14 20 17
813 777 776 669 604 429 448 247 308 140 46 23 50 40 46 0 0 13 11 146 183 0 0 0 0 0 0 0 0 246 31 66 32 44 56 79 65 60 85 85 269 284 22 0 28 0 0 0 0 0 0 0 1 164 392 270 103 100 51 69 64 40 51
421 574 609 546 465 442 287 160 104 111 143 90 39 34 61 177 231 351 148 21 1 0 0 0 0 0 0 0 0 203 118 43 28 49 46 43 73 70 56 44 117 141 28 30 47 9 1 0 0 0 0 0 0 0 0 61 232 211 164 66 50 110 128
156 213 90 57 91 175 221 205 187 194 219 314 372 286 207 307 172 4 0 0 0 0 0 0 0 0 0 0 0 8 48 158 129 58 61 72 69 83 124 131 96 228 356 148 96 264 207 59 0 0 0 0 0 0 0 0 0 20 112 306 279 255 283
8 0 0 0 0 2 81 62 0 0 25 10 17 44 194 210 13 0 0 0 0 0 0 0 0 0 0 0 0 1 76 179 234 164 94 83 93 117 162 189 288 644 605 711 360 642 242 724 410 202 0 1 45 273 0 0 0 0 0 33 192 328 435
63 16 0 0 0 0 0 3 3 10 4 1 1 0 3 2 0 0 0 0 0 0 0 0 0 0 0 0 0 0 403 385 222 210 172 174 292 594 761 877 880 824 596 436 428 40 33 222 416 684 760 700 496 413 534 508 187 48 4 10 47 257 454
5 10 7 0 0 0 0 0 4 1 0 0 0 2 0 0 0 0 0 0 0 0 0 0 0 0 12 0 79 54 507 418 199 234 508 708 833 873 734 607 606 604 705 493 292 115 276 250 199 385 417 632 647 437 408 805 1091 712 935 1339 639 1243 1189
5 4 4 3 0 0 0 0 0 0 0 0 0 1 3 3 1 0 0 0 0 0 0 0 0 0 0 0 0 225 342 208 195 737 891 898 1095 1046 1055 1079 1218 1084 654 1009 370 211 268 78 460 254 463 561 382 306 276 775 462 561 560 495 416 380 405
2 2 0 1 1 0 0 1 0 0 0 0 4 0 0 0 0 0 1 0 0 0 0 0 0 0 0 0 55 94 107 109 421 356 651 969 891 646 650 410 358 420 497 304 206 0 0 42 263 270 475 516 593 502 563 777 191 234 263 409 472 429 321
2 2 1 1 1 0 1 1 0 0 0 0 13 13 9 3 6 13 19 26 29 0 1 0 0 0 12 72 92 64 47 24 88 142 84 75 64 54 396 246 90 0 0 0 0 23 189 236 269 340 375 296 342 384 316 595 560 646 535 402 282 9 18
0 0 2 2 3 1 2 2 1 3 3 2 0 3 2 2 4 3 6 28 47 54 62 56 55 72 95 96 88 78 74 62 16 0 0 0 0 0 0 78 54 0 0 0 0 3 69 180 183 184 3 143 457 81 6 4 178 266 368 495 656 611 413
2 2 6 4 3 2 0 1 4 7 8 6 5 5 5 5 7 5 2 0 3 9 12 15 18 27 2 4 1 0 2 0 0 0 0 5 2 0 0 0 0 0 0 0 0 0 0 0 0 0 0 0 65 70 60 4 1 0 265 418 424 455 444
1 0 1 2 2 6 10 4 4 3 6 6 2 2 0 2 2 2 1 2 1 2 1 0 0 0 3 6 8 0 0 0 0 0 0 0 0 0 0 0 0 0 0 0 0 0 0 0 0 0 0 0 0 0 0 0 0 14 198 276 308 362 270
0 0 2 1 0 8 6 3 5 5 7 4 0 0 0 1 0 0 0 0 0 0 0 0 0 0 0 0 0 0 0 0 0 0 0 0 0 0 0 0 0 0 0 0 0 0 0 0 0 0 0 0 0 0 0 0 0 0 3 130 216 219 91
0 0 0 0 1 3 4 2 2 2 1 2 2 1 0 0 0 0 1 0 0 0 0 0 0 0 0 0 0 0 0 0 0 0 0 0 0 0 0 0 0 0 0 0 0 0 0 0 0 0 0 0 0 0 0 0 0 0 0 0 0 59 87
Wind_Speed
19 21 19 18 21 10 16 17 19 17 16 17 15 15 14 13 14 15 15 15 16 15 15 13 14 14 15 15 15 13 11 12 13 15 8 13 12 13 14 14 12 15 11 14 13 12 14 14 14 14 14 15 15 14 14 16 14 14 13 13 14 13 14
21 21 22 21 19 12 18 17 17 18 17 18 15 15 13 14 15 15 16 16 14 15 12 12 13 14 16 17 16 16 13 14 13 17 10 13 13 12 15 13 14 11 11 18 11 12 11 14 14 13 15 15 15 14 13 14 15 14 14 14 15 15 16
23 23 24 21 14 16 17 18 18 17 17 16 14 14 13 15 14 17 16 15 14 13 10 13 14 15 17 18 17 17 17 15 15 15 15 14 16 12 12 11 12 16 12 13 17 8 10 11 13 13 14 15 14 13 13 nan nan nan nan nan nan 16 nan
23 26 24 20 16 16 18 18 17 16 15 15 14 13 12 14 16 16 16 16 14 13 11 14 14 15 16 17 18 19 18 17 17 17 17 15 13 15 14 11 14 16 14 13 14 11 12 14 12 13 14 16 nan nan nan nan nan nan nan nan nan nan nan
24 26 24 17 17 17 17 17 16 16 14 14 12 13 12 14 15 17 17 15 15 13 13 12 15 14 17 17 18 18 19 18 18 18 18 17 14 14 15 13 14 14 13 12 9 14 16 15 14 15 16 18 17 nan nan nan nan nan nan nan nan nan nan
25 27 23 17 17 18 16 16 15 14 13 13 11 13 13 15 16 17 16 15 15 14 14 14 14 15 16 18 18 18 20 19 18 19 21 17 14 15 15 14 12 14 12 10 11 13 17 18 15 17 18 17 17 nan nan nan nan nan nan nan nan nan nan
21 22 20 19 19 17 14 13 13 12 13 12 13 13 15 16 16 16 16 16 16 17 16 16 16 15 16 17 17 17 19 17 18 18 22 18 16 17 14 13 14 11 11 9 11 11 16 16 17 17 nan nan nan nan nan nan nan nan nan nan nan nan nan
21 23 19 21 20 17 14 13 11 13 13 13 14 16 18 17 17 17 18 18 18 18 18 18 17 18 17 17 16 18 17 18 19 18 20 20 20 18 12 11 15 10 9 13 14 13 13 15 16 17 17 nan nan nan nan nan nan nan nan nan nan nan nan
22 21 19 23 20 16 14 13 12 13 14 15 16 18 18 17 17 18 18 19 19 19 19 19 18 19 17 18 17 16 18 18 19 18 19 19 18 20 13 12 13 11 10 13 15 14 15 15 17 17 nan nan nan nan nan nan nan nan nan nan nan nan nan
23 20 22 24 21 16 15 14 14 13 17 16 18 20 19 18 18 17 19 21 20 20 20 19 19 19 17 17 17 17 18 18 18 18 18 16 18 17 15 15 13 9 12 17 14 14 17 17 17 16 nan nan nan nan nan nan nan nan nan nan nan nan nan
22 21 21 22 18 16 16 15 15 15 17 17 19 20 18 18 18 18 22 20 19 19 18 17 17 19 18 18 18 18 18 17 18 18 15 16 16 15 16 16 13 10 14 17 14 15 19 18 nan nan nan nan nan nan nan nan nan nan nan nan nan nan nan
22 20 16 16 17 14 16 15 16 16 18 19 18 19 17 18 17 19 21 nan nan 17 17 18 18 17 18 18 17 18 17 17 17 17 15 15 15 15 16 15 17 12 16 16 16 19 19 nan nan nan nan nan nan nan nan nan nan nan nan nan nan nan nan
23 19 16 15 15 13 15 17 17 18 18 17 17 17 17 18 19 19 19 nan nan nan 17 17 nan 18 18 nan nan nan nan nan nan 15 15 13 14 15 15 16 16 15 15 17 19 20 nan nan nan nan nan nan nan nan nan nan nan nan nan nan nan nan nan
23 19 17 16 14 13 15 18 19 18 18 16 17 17 18 19 18 18 nan nan nan nan 18 17 nan nan nan nan nan nan nan nan nan nan 16 15 14 15 16 17 17 17 17 18 20 20 nan nan nan nan nan nan nan nan nan nan nan nan nan nan nan nan nan
23 20 21 19 14 13 15 18 18 16 17 16 17 18 19 19 17 16 nan nan nan nan 18 nan nan nan nan nan nan nan nan nan nan nan 15 nan nan nan 15 17 18 19 18 nan nan nan nan nan nan nan nan nan nan nan nan nan nan nan nan nan nan nan nan
22 22 22 21 14 14 15 18 17 15 16 16 16 17 19 18 17 16 nan nan nan nan nan nan nan nan nan nan nan nan nan nan nan nan nan nan nan nan nan 19 20 19 20 nan nan nan nan nan nan nan nan nan nan nan nan nan nan nan nan nan nan nan nan
22 21 22 21 18 17 17 17 15 15 13 14 15 16 18 16 17 17 nan nan nan nan nan nan nan nan nan nan nan nan nan nan nan nan nan nan nan 19 nan 20 21 21 nan nan nan nan nan nan nan nan nan nan nan nan nan nan nan nan nan nan nan nan nan
20 21 20 23 22 20 20 17 16 15 15 14 16 16 18 nan nan nan nan nan nan nan nan nan nan nan nan nan nan nan nan nan nan nan nan nan nan 22 nan 21 nan 23 nan nan nan nan nan nan nan nan nan nan nan nan nan nan nan nan nan nan nan nan nan
15 19 22 24 23 22 21 20 18 19 17 16 19 18 nan nan nan nan nan nan nan nan nan nan nan nan nan nan nan nan nan nan nan nan nan nan nan nan nan nan nan nan nan nan nan nan nan nan nan nan nan nan nan nan nan nan nan 20 nan nan nan nan nan
20 23 25 24 23 22 23 23 21 20 nan 18 19 nan nan nan nan nan nan nan nan nan nan nan nan nan nan nan nan nan nan nan nan nan nan nan nan nan nan nan nan nan nan nan nan nan nan nan nan nan nan nan nan nan nan nan nan nan nan 24 nan nan nan
25 25 24 25 23 22 22 23 21 20 20 nan nan nan nan nan nan nan nan nan nan nan nan nan nan nan nan nan nan nan nan nan nan nan nan nan nan nan nan nan nan nan nan nan 26 nan nan nan nan nan nan nan nan nan nan nan nan nan nan nan nan nan nan
24 25 25 24 22 20 20 20 21 20 21 nan nan nan nan nan nan nan nan nan nan nan nan 28 nan nan nan nan nan nan nan nan nan nan nan nan nan nan nan nan nan 29 nan nan nan nan 30 30 27 24 25 nan nan nan nan 24 nan nan nan nan nan nan nan
27 27 24 24 23 21 20 21 21 20 21 nan nan nan nan nan nan nan nan nan nan 30 nan nan nan nan nan nan nan nan nan nan nan nan nan nan nan nan nan nan 31 nan nan nan nan nan nan nan nan nan 26 27 25 nan nan nan nan nan nan nan nan nan nan
28 28 26 25 25 23 22 22 22 22 nan nan nan nan nan nan nan nan nan 29 33 nan nan nan nan nan nan nan nan 22 nan nan nan nan nan nan nan nan nan nan 27 29 nan nan nan nan nan nan nan nan nan nan nan 30 29 28 29 30 nan nan nan nan nan
26 28 26 26 27 30 28 28 28 29 29 nan nan nan nan 28 30 31 33 nan nan nan nan nan nan nan nan nan nan 25 23 nan nan nan nan nan nan nan nan nan 23 25 nan nan nan nan nan nan nan nan nan nan nan nan nan nan 32 32 32 nan nan 33 34
30 30 nan nan nan 31 33 32 32 33 34 32 30 29 29 31 33 nan nan nan nan nan nan nan nan nan nan nan nan nan nan 26 25 nan nan nan nan nan 23 22 nan 22 24 32 nan 26 27 nan nan nan nan nan nan nan nan nan nan nan 35 35 35 34 35
nan nan nan nan nan nan nan nan nan nan nan nan nan nan 35 36 nan nan nan nan nan nan nan nan nan nan nan nan nan nan nan 25 25 25 nan nan nan 23 22 22 21 24 21 23 26 26 23 26 30 31 nan nan nan 34 nan nan nan nan nan nan 37 36 37
nan nan nan nan nan nan nan nan nan nan nan nan nan nan nan nan nan nan nan nan nan nan nan nan nan nan nan nan nan nan 28 26 24 24 23 22 22 23 24 24 23 23 25 34 37 nan nan 27 22 24 28 31 32 33 36 38 39 nan nan nan nan 39 40
nan nan nan nan nan nan nan nan nan nan nan nan nan nan nan nan nan nan nan nan nan nan nan nan nan nan nan nan nan nan 28 26 25 23 22 23 23 24 24 24 24 24 34 36 32 36 35 32 28 25 26 31 33 33 29 33 40 42 42 43 44 46 49
nan nan nan nan nan nan nan nan nan nan nan nan nan nan nan nan nan nan nan nan nan nan nan nan nan nan nan nan nan 28 27 25 23 23 23 23 25 24 26 28 30 30 32 35 40 39 38 nan 32 30 31 35 35 33 32 35 40 47 46 47 50 51 51
nan nan nan nan nan nan nan nan nan nan nan nan nan nan nan nan nan nan nan nan nan nan nan nan nan nan nan nan nan nan 26 25 26 25 25 26 26 28 35 35 35 32 35 40 42 nan nan nan 34 33 34 34 34 34 34 41 47 47 52 51 51 50 49
nan nan nan nan nan nan nan nan nan nan nan nan nan nan nan nan nan nan nan nan nan nan nan nan nan nan nan nan nan nan nan nan nan 29 nan nan nan nan 37 42 nan nan nan nan nan nan 48 45 40 39 38 36 37 37 41 42 46 50 51 50 50 nan nan
nan nan nan nan nan nan nan nan nan nan nan nan nan nan nan nan nan nan nan nan nan nan nan nan nan nan nan nan nan nan nan nan nan nan nan nan nan nan nan nan nan nan nan nan nan nan nan 48 45 42 nan 42 40 nan nan nan 50 52 50 49 50 54 54
nan nan nan nan nan nan nan nan nan nan nan nan nan nan nan nan nan nan nan nan nan nan nan nan nan nan nan nan nan nan nan nan nan nan nan nan nan nan nan nan nan nan nan nan nan nan nan nan nan nan nan nan nan nan nan nan nan nan 52 53 53 54 56
nan nan nan nan nan nan nan nan nan nan nan nan nan nan nan nan nan nan nan nan nan nan nan nan nan nan nan nan nan nan nan nan nan nan nan nan nan nan nan nan nan nan nan nan nan nan nan nan nan nan nan nan nan nan nan nan nan nan 55 56 56 58 59
nan nan nan nan nan nan nan nan nan nan nan nan nan nan nan nan nan nan nan nan nan nan nan nan nan nan nan nan nan nan nan nan nan nan nan nan nan nan nan nan nan nan nan nan nan nan nan nan nan nan nan nan nan nan nan nan nan nan nan 57 57 57 nan
nan nan nan nan nan nan nan nan nan nan nan nan nan nan nan nan nan nan nan nan nan nan nan nan nan nan nan nan nan nan nan nan nan nan nan nan nan nan nan nan nan nan nan nan nan nan nan nan nan nan nan nan nan nan nan nan nan nan nan nan nan nan nan
Wind_Direction
253 251 243 244 248 237 273 283 276 276 275 272 268 264 263 262 265 270 276 279 278 279 278 278 277 277 281 285 285 288 283 279 284 266 269 289 295 290 300 293 281 284 297 288 290 274 283 286 281 277 275 271 262 259 262 268 275 277 282 283 285 288 285
250 246 251 241 239 239 274 279 275 275 271 268 269 263 264 267 268 272 276 275 274 273 274 271 277 282 289 287 297 290 288 281 277 279 289 288 289 286 294 295 283 267 278 278 268 261 275 291 288 291 284 273 271 270 272 279 279 280 279 285 289 290 289
258 258 249 237 221 255 274 274 270 268 267 266 261 262 263 267 269 270 273 273 269 268 266 274 277 289 293 298 297 294 287 287 278 280 271 265 277 280 278 279 280 276 262 270 282 273 270 265 291 297 292 289 280 278 284 nan nan nan nan nan nan 288 nan
264 261 245 228 240 264 276 275 275 270 265 263 257 255 263 268 270 271 266 263 261 260 263 270 281 286 292 294 295 294 293 290 284 282 275 273 279 289 284 271 272 267 254 258 264 290 281 282 284 288 292 285 nan nan nan nan nan nan nan nan nan nan nan
263 260 247 228 261 284 284 283 278 271 260 261 258 263 267 271 269 264 261 260 260 260 260 271 279 285 286 288 291 292 290 287 283 281 280 284 289 284 283 277 275 268 274 270 271 282 282 283 288 289 289 291 293 nan nan nan nan nan nan nan nan nan nan
256 254 243 240 273 290 286 282 275 265 263 259 265 276 277 273 268 264 262 257 256 258 263 267 275 272 281 285 288 293 289 288 284 286 285 285 289 283 282 280 267 266 266 270 257 262 278 291 296 286 284 288 284 nan nan nan nan nan nan nan nan nan nan
255 247 238 251 277 282 275 272 265 258 257 263 273 279 276 275 268 263 261 257 257 261 265 266 270 278 278 277 283 283 285 284 282 286 284 296 296 280 281 283 268 272 277 275 274 271 270 275 279 284 nan nan nan nan nan nan nan nan nan nan nan nan nan
260 246 237 261 278 277 268 264 248 251 256 265 274 274 276 272 265 260 255 255 256 258 263 268 272 273 274 277 275 279 280 280 281 285 288 294 288 288 275 264 271 265 276 287 277 266 272 275 277 281 287 nan nan nan nan nan nan nan nan nan nan nan nan
266 249 245 267 275 270 263 252 243 245 253 261 267 270 275 270 264 261 261 258 258 262 267 272 277 274 271 272 275 276 278 278 282 287 285 288 286 287 280 260 260 257 261 267 269 260 264 275 279 281 nan nan nan nan nan nan nan nan nan nan nan nan nan
273 259 261 271 274 273 259 244 239 243 253 259 266 271 273 270 264 265 261 259 260 263 267 270 269 270 270 269 272 274 273 273 277 280 281 283 282 281 280 269 257 260 266 262 258 267 275 273 277 283 nan nan nan nan nan nan nan nan nan nan nan nan nan
284 272 264 270 273 271 262 243 243 248 255 260 262 267 270 268 268 264 260 261 262 263 266 267 267 267 269 270 273 274 275 277 278 275 274 276 277 275 272 271 261 250 265 262 272 267 266 272 nan nan nan nan nan nan nan nan nan nan nan nan nan nan nan
279 272 257 265 273 274 259 249 249 253 255 258 264 266 267 268 268 266 264 nan nan 264 263 259 260 268 271 271 274 271 275 277 272 269 269 271 271 270 270 266 267 257 260 267 269 266 270 nan nan nan nan nan nan nan nan nan nan nan nan nan nan nan nan
279 268 248 255 276 268 253 250 250 255 256 257 262 263 260 265 266 267 264 nan nan nan 263 263 nan 269 271 nan nan nan nan nan nan 271 266 261 263 269 267 263 261 263 262 266 266 267 nan nan nan nan nan nan nan nan nan nan nan nan nan nan nan nan nan
278 267 252 260 269 260 250 251 245 248 252 252 257 259 259 263 264 262 nan nan nan nan 264 267 nan nan nan nan nan nan nan nan nan nan 267 266 261 261 265 261 260 262 265 268 266 266 nan nan nan nan nan nan nan nan nan nan nan nan nan nan nan nan nan
274 263 252 252 262 262 251 251 249 249 249 247 252 254 259 258 256 254 nan nan nan nan 267 nan nan nan nan nan nan nan nan nan nan nan 271 nan nan nan 262 262 261 265 267 nan nan nan nan nan nan nan nan nan nan nan nan nan nan nan nan nan nan nan nan
274 269 252 252 272 277 258 252 251 249 248 245 248 248 252 253 253 253 nan nan nan nan nan nan nan nan nan nan nan nan nan nan nan nan nan nan nan nan nan 265 265 263 260 nan nan nan nan nan nan nan nan nan nan nan nan nan nan nan nan nan nan nan nan
279 271 262 260 282 281 262 251 249 249 245 246 250 244 246 248 253 255 nan nan nan nan nan nan nan nan nan nan nan nan nan nan nan nan nan nan nan 266 nan 268 263 263 nan nan nan nan nan nan nan nan nan nan nan nan nan nan nan nan nan nan nan nan nan
278 275 266 267 278 273 258 249 250 252 243 244 249 241 239 nan nan nan nan nan nan nan nan nan nan nan nan nan nan nan nan nan nan nan nan nan nan 270 nan 269 nan 266 nan nan nan nan nan nan nan nan nan nan nan nan nan nan nan nan nan nan nan nan nan
265 270 270 267 276 271 257 251 249 246 243 244 245 237 nan nan nan nan nan nan nan nan nan nan nan nan nan nan nan nan nan nan nan nan nan nan nan nan nan nan nan nan nan nan nan nan nan nan nan nan nan nan nan nan nan nan nan 273 nan nan nan nan nan
276 271 264 265 269 266 259 253 250 246 nan 250 250 nan nan nan nan nan nan nan nan nan nan nan nan nan nan nan nan nan nan nan nan nan nan nan nan nan nan nan nan nan nan nan nan nan nan nan nan nan nan nan nan nan nan nan nan nan nan 281 nan nan nan
266 269 266 266 264 262 258 259 254 249 249 nan nan nan nan nan nan nan nan nan nan nan nan nan nan nan nan nan nan nan nan nan nan nan nan nan nan nan nan nan nan nan nan nan 259 nan nan nan nan nan nan nan nan nan nan nan nan nan nan nan nan nan nan
260 265 265 265 262 259 260 259 257 256 254 nan nan nan nan nan nan nan nan nan nan nan nan 250 nan nan nan nan nan nan nan nan nan nan nan nan nan nan nan nan nan 256 nan nan nan nan 250 252 251 258 265 nan nan nan nan 267 nan nan nan nan nan nan nan
259 261 261 257 254 255 257 254 251 253 254 nan nan nan nan nan nan nan nan nan nan 248 nan nan nan nan nan nan nan nan nan nan nan nan nan nan nan nan nan nan 258 nan nan nan nan nan nan nan nan nan 253 258 260 nan nan nan nan nan nan nan nan nan nan
256 254 253 250 250 254 258 254 250 250 nan nan nan nan nan nan nan nan nan 256 250 nan nan nan nan nan nan nan nan 257 nan nan nan nan nan nan nan nan nan nan 268 264 nan nan nan nan nan nan nan nan nan nan nan 264 263 266 269 266 nan nan nan nan nan
255 250 252 254 252 249 252 253 251 249 248 nan nan nan nan 251 247 248 249 nan nan nan nan nan nan nan nan nan nan 247 265 nan nan nan nan nan nan nan nan nan 266 269 nan nan nan nan nan nan nan nan nan nan nan nan nan nan 268 270 271 nan nan 274 276
249 245 nan nan nan 249 256 258 254 250 250 251 253 253 255 254 252 nan nan nan nan nan nan nan nan nan nan nan nan nan nan 258 260 nan nan nan nan nan 257 261 nan 269 273 275 nan 274 280 nan nan nan nan nan nan nan nan nan nan nan 272 273 274 275 277
nan nan nan nan nan nan nan nan nan nan nan nan nan nan 253 253 nan nan nan nan nan nan nan nan nan nan nan nan nan nan nan 245 245 246 nan nan nan 251 253 256 263 268 267 280 275 269 273 279 286 286 nan nan nan 289 nan nan nan nan nan nan 277 276 275
nan nan nan nan nan nan nan nan nan nan nan nan nan nan nan nan nan nan nan nan nan nan nan nan nan nan nan nan nan nan 254 244 242 244 246 251 257 257 258 259 260 258 260 256 256 nan nan 256 261 278 284 288 288 286 285 285 283 nan nan nan nan 278 277
nan nan nan nan nan nan nan nan nan nan nan nan nan nan nan nan nan nan nan nan nan nan nan nan nan nan nan nan nan nan 248 243 240 243 250 258 261 262 261 263 262 263 259 261 268 271 268 267 270 267 267 263 260 264 265 262 268 274 277 278 276 273 271
nan nan nan nan nan nan nan nan nan nan nan nan nan nan nan nan nan nan nan nan nan nan nan nan nan nan nan nan nan 239 238 237 241 250 257 258 260 262 259 253 254 254 258 262 258 255 257 nan 266 264 264 269 269 268 274 278 275 273 271 270 270 271 270
nan nan nan nan nan nan nan nan nan nan nan nan nan nan nan nan nan nan nan nan nan nan nan nan nan nan nan nan nan nan 234 238 243 248 253 258 258 259 258 252 252 256 259 262 255 nan nan nan 265 265 265 264 267 268 267 271 276 278 276 275 274 273 273
nan nan nan nan nan nan nan nan nan nan nan nan nan nan nan nan nan nan nan nan nan nan nan nan nan nan nan nan nan nan nan nan nan 252 nan nan nan nan 270 263 nan nan nan nan nan nan 256 256 261 262 263 266 268 271 269 267 275 277 278 281 282 nan nan
nan nan nan nan nan nan nan nan nan nan nan nan nan nan nan nan nan nan nan nan nan nan nan nan nan nan nan nan nan nan nan nan nan nan nan nan nan nan nan nan nan nan nan nan nan nan nan 260 261 261 nan 265 266 nan nan nan 267 268 275 281 282 284 284
nan nan nan nan nan nan nan nan nan nan nan nan nan nan nan nan nan nan nan nan nan nan nan nan nan nan nan nan nan nan nan nan nan nan nan nan nan nan nan nan nan nan nan nan nan nan nan nan nan nan nan nan nan nan nan nan nan nan 274 277 278 281 283
nan nan nan nan nan nan nan nan nan nan nan nan nan nan nan nan nan nan nan nan nan nan nan nan nan nan nan nan nan nan nan nan nan nan nan nan nan nan nan nan nan nan nan nan nan nan nan nan nan nan nan nan nan nan nan nan nan nan 280 280 282 283 284
nan nan nan nan nan nan nan nan nan nan nan nan nan nan nan nan nan nan nan nan nan nan nan nan nan nan nan nan nan nan nan nan nan nan nan nan nan nan nan nan nan nan nan nan nan nan nan nan nan nan nan nan nan nan nan nan nan nan nan 280 281 281 nan
nan nan nan nan nan nan nan nan nan nan nan nan nan nan nan nan nan nan nan nan nan nan nan nan nan nan nan nan nan nan nan nan nan nan nan nan nan nan nan nan nan nan nan nan nan nan nan nan nan nan nan nan nan nan nan nan nan nan nan nan nan nan nan